sat.trackr.live / text

‹ back to catalog

STARLINK-37084

NORAD 68254 · 2026-054Y

PAYLOAD ACTIVE UNKNOWN

§ Identity

Operator
Country
US
Launch date
2026-03-17
Launch site
AFETR
Launch vehicle
Mass (kg)
RCS (m²)

Purposes: comms

External: N2YO · Heavens-Above · Gunter

§ Orbital elements

Epoch: 2026-09-19T07:08:43.642176Z

Period
93.85 min
Inclination
53.1591°
Eccentricity
0.0001170
Mean motion
15.34398614 rev/d
Perigee alt
461.9 km
Apogee alt
463.5 km
Semi-major
6,840.8 km
B*
4.0231e-4
RAAN
107.6661°
Arg perigee
85.7228°
Mean anomaly
274.3909°
Rev number
2,877

§ Raw data

STARLINK-370841 68254U 26054Y   26262.29772734  .00013240  00000+0  40231-3 0  99932 68254  53.1591 107.6661 0001170  85.7228 274.3909 15.34398614 28771

JSON: /api/v1/satellites/68254 · /tle

For live sub-satellite position, see the globe view (requires WebGL).

§ Visibility from observer

Set your observer location to see the next 7 days of passes ≥ 10°. The values pass through the URL so the page stays shareable.

No JS? Fill the form by hand. The geolocation button needs JavaScript.